Location: Newark
(45.5000°N, 11.4167°E)
Time: 00:02:43
(UTC+00:00)

Explorer 11/Cluster Stage 4 - Pass Details

Date: 22 August 2019
Orbit: 467 x 1260 km, 28.8° (Epoch: 17 September)

Event Time Altitude Azimuth Distance (km) Brightness Sun altitude
Rises 11:34:36 0° 238° (WSW) 4,198 10.6 56.1°
Reaches altitude 10° 11:38:18 10° 224° (SW) 3,219 10.3 56.0°
Maximum altitude 11:44:10 22° 178° (S) 2,354 10.1 55.8°
Drops below altitude 10° 11:49:40 10° 132° (SE) 2,989 9.9 55.6°
Sets 11:52:57 0° 117° (ESE) 3,827 10.2 55.4°
